Preview of NWS' New Version of Forecast
This preview is not operational and should not be used for support decisions.

Regional Weather Roundup (RWR)

Issued by National Weather Service (NWS)

                            
000
ASUS44 KMEG 250700
RWRTN 
TENNESSEE HOURLY STATE WEATHER ROUNDUP
NATIONAL WEATHER SERVICE MEMPHIS TN
200 AM CDT SUN AUG 25 2019

TNZ002-004-019-021-049-052-054-088>092-250800-
WEST TENNESSEE
  
CITY           SKY/WX    TMP DP  RH WIND       PRES   REMARKS
MEMPHIS INTL   LGT RAIN  74  72  93 CALM      29.97F                  
NWS MEMPHIS      N/A     75 N/A N/A MISG        N/A                   
JACKSON        CLOUDY    75  73  93 N5        30.00F                  
DYERSBURG      CLOUDY    72  69  90 E3        30.00F                  
SELMER         CLOUDY    73  72  94 CALM      29.99S                  
$$

TNZ008-025-027-028-033-062-065-066-250800-
NORTH MIDDLE TENNESSEE
  
CITY           SKY/WX    TMP DP  RH WIND       PRES   REMARKS
NASHVILLE      MOCLDY    73  66  78 NE6       30.02F                  
CLARKSVILLE    FAIR      69  61  75 NE5       30.02F                  
SMYRNA         MOCLDY    73  69  87 NE3       30.02F                  
LIVINGSTON     SUNNY     68  64  88 NE5       30.05F                  
CROSSVILLE     FAIR      68  65  90 VRB3      30.09F                  
$$

TNZ061-075-076-078-094-096-097-250800-
SOUTH MIDDLE TENNESSEE
  
CITY           SKY/WX    TMP DP  RH WIND       PRES   REMARKS
WINCHESTER     PTCLDY    73  70  88 CALM      30.02F                  
$$

TNZ017-018-042-046-047-250800-
NORTHEAST TENNESSEE
  
CITY           SKY/WX    TMP DP  RH WIND       PRES   REMARKS
TRI CITIES     FAIR      60  57  89 CALM      30.13F                  
$$

TNZ012-013-036-069-073-074-250800-
CENTRAL EAST TENNESSEE
  
CITY           SKY/WX    TMP DP  RH WIND       PRES   REMARKS
KNOXVILLE      CLOUDY    70  63  78 NE9       30.06S                  
OAK RIDGE      MOCLDY    71  64  78 VRB5      30.08F                  
$$

TNZ083-085-099-250800-
SOUTHEAST TENNESSEE
  
CITY           SKY/WX    TMP DP  RH WIND       PRES   REMARKS
CHATTANOOGA    MOCLDY    75  71  87 SE5       30.04F                  
$$

SKY/WX REPORTED AS FAIR MEANS FEW OR NO CLOUDS BELOW
12 THOUSAND FEET.